Weather in Ushnia

Ukraine / Chernihiv Region     51°24′34″N   32°03′56″E
temp.,
°C
wind,
m/s
gust,
m/s
humid.,
%
clouds,
%
prec.,
mm/h
press.,
hPa
HPBL,
m
18 may, tue
tue1800:00+14sw359842 0.0 1003126
03:00+12ssw2295100 0.0 100327
06:00+13se3497100 0.0 100393
09:00+17sse2486100 0.0 1003467
12:00+18se3475100 0.3 1002764
15:00+19se3477100 2.6 1001882
18:00+18se4782100 1.5 1000457
21:00+15sse3791100 2.2 1000146
19 may, wed
wed1900:00+13se389540 0.7 1000161
03:00+11ese379825 0.7 1000148
06:00+12se499979 0.0 1001340
09:00+13sse5789100 0.1 1002552
12:00+17sse577460 0.1 10031117
15:00+19sse576260 1.3 10031584
18:00+18se4574100 1.0 1003525
21:00+13sw1185100 1.4 100410
20 may, thu
thu2000:00+11nw5898100 0.3 1004258
03:00+11wnw5897100 0.6 1004504
06:00+10wnw5998100 0.1 1004457
09:00+10wnw61096100 0.4 1005619
12:00+10wnw51095100 0.9 1008489
15:00+16nw587086 1.0 10091450
18:00+16nnw46696 0.1 10101267
21:00+11n2282100 0.1 101211
21 may, fri
fri2100:00+9sse1187100 0.0 101410
03:00+9ssw2289100 0.0 101310
06:00+10n2288100 0.0 101432
09:00+14nne227696 0.0 1014462
12:00+16e2268100 0.4 1015947
15:00+14se2282100 1.3 1015167
18:00+13s2285100 0.5 101540
21:00+11se2294100 0.6 101644
22 may, sat
sat2200:00+11ene2292100 0.0 101631
03:00+9nne239218 0.0 101633
06:00+9nne3494100 0.0 101690
09:00+14ne35800 0.0 1016497
12:00+18ne56620 0.0 10151187
15:00+20ene235699 0.1 10151776
18:00+19ese226795 0.0 1015349
21:00+14ese348378 0.0 101450